Location: Kerdala�s
(48.5212°N, 4.5001°W)
Time: 09:50:44
(UTC+00:00)

Daily predictions for brighter satellites

Satellite Brightness Start Highest point End
(mag) Time Altitude Azimuth Time Altitude Azimuth Time Altitude Azimuth
SeaSat 1 4.1 16:55:08 10° N 16:59:14 27° NW 17:03:20 10° WSW
NOSS 3-1 (A) 4.3 16:52:31 10° NW 16:59:16 45° NE 17:07:13 10° ESE
USA 306 2.9 16:55:04 10° SW 16:59:19 81° SSE 17:03:35 10° ENE
NOSS 2-1 (C) 2.9 16:57:02 10° SSW 17:00:17 65° SE 17:03:34 10° NE
Spot 1 4.4 16:57:34 10° NNE 17:02:03 59° ESE 17:06:48 10° S
USA 81 4.4 16:57:23 10° SSW 17:02:38 73° W 17:07:55 10° N
NOSS 3-1 (C) 4.1 16:55:32 10° NW 17:02:39 61° NE 17:11:06 10° ESE
Cosmos 1943 4.2 16:58:00 10° SW 17:03:23 45° NW 17:08:48 10° NNE
USA 234 3.5 16:58:27 10° SE 17:05:01 78° SW 17:11:35 10° WNW
Iridium 2 3.7 17:01:38 10° N 17:05:22 58° E 17:09:04 10° SSE
SL-08 R/B 3.3 17:00:47 10° NNE 17:05:35 77° ESE 17:10:15 10° S
Cosmos 1842 Rocket 4.4 17:03:13 10° SSE 17:07:10 32° E 17:11:09 10° NNE
Cosmos 1833 Rocket 4.3 17:05:10 10° SE 17:08:18 15° E 17:11:27 10° ENE
Cosmos 1777 Rocket 4.2 17:02:59 10° NNW 17:08:18 84° WSW 17:13:36 10° SSE
NOSS 2-1 (D) 2.8 17:06:20 10° SW 17:09:35 82° SE 17:12:55 10° NE
PSLV R/B 4.5 17:10:56 10° SE 17:14:07 28° ENE 17:17:21 10° N
CZ-4B R/B 4.0 17:10:17 10° ESE 17:14:48 28° ENE 17:19:17 10° N
Meteor PRIRODA 3.6 17:11:24 10° SSE 17:15:03 89° WSW 17:18:43 10° NNW
USA 307 2.9 17:11:29 10° WSW 17:15:46 89° NNW 17:19:51 11° ENE
ERBS 2.6 17:13:34 10° SSW 17:16:40 48° SE 17:19:27 12° ENE
Cosmos 1862 3.4 17:12:57 10° NNW 17:16:57 82° W 17:20:56 10° S
Cosmos 1939 Rocket 3.0 17:13:35 10° SSE 17:17:39 58° ENE 17:21:41 10° N
Cosmos 1766 Rocket 3.7 17:13:23 10° NNW 17:17:45 79° W 17:22:06 10° S
SMAP 3.1 17:13:54 10° SSE 17:18:27 58° ENE 17:23:03 10° N
Cosmos 1898 Rocket 4.3 17:13:59 10° N 17:18:36 29° NE 17:23:09 10° ESE
ARGOS 4.2 17:14:53 10° ESE 17:19:08 24° ENE 17:23:23 10° N
Cosmos 1606 2.8 17:15:48 10° S 17:19:27 54° E 17:23:09 10° NNE
H-2A R/B 2.6 17:15:52 10° SE 17:20:33 35° ENE 17:25:09 10° N
ATLAS CENTAUR R/B 1.9 17:20:39 10° SW 17:24:43 58° NW 17:29:09 10° NNE
Cosmos 2221 2.6 17:22:32 10° S 17:26:42 56° E 17:30:55 10° NNE
FengYun 1-2 T 4.2 17:21:14 10° SSE 17:26:51 85° ENE 17:32:27 10° NNW
Cosmos 44 3.2 17:22:07 10° NNW 17:26:57 60° NE 17:31:28 10° SE
COSMO-SKYMED 1 3.9 17:29:13 12° NE 17:31:59 20° E 17:35:12 10° SE
Cosmos 2026 Rocket 4.5 17:28:04 10° N 17:33:42 35° ENE 17:39:13 10° SE
deb Chang Zheng 4 4.3 17:33:27 10° SE 17:37:14 31° ENE 17:41:04 10° N
Meteor 2-19 Rocket 4.4 17:31:52 10° N 17:37:58 81° E 17:44:05 10° SSE
USA 308 3.0 17:33:46 10° WSW 17:38:02 70° NNW 17:41:12 17° ENE
CZ-2C R/B 3.5 17:33:52 10° NE 17:38:17 27° E 17:42:37 10° SSE
Okean O Rocket 2.4 17:37:40 10° SE 17:41:31 29° ENE 17:45:23 10° N
Meteor 1-25 Rocket 4.4 17:37:32 10° N 17:42:56 49° ENE 17:48:20 10° SSE
ISS -3.3 17:39:42 10° W 17:43:01 48° N 17:44:55 22° ENE
CZ-4C R/B 3.5 17:38:38 10° NW 17:44:38 33° NNE 17:49:48 17° E
YAOGAN 1 4.0 17:50:23 18° NE 17:50:23 18° NE 17:52:35 10° NNE
Cosmos 1461 4.4 17:47:45 10° WSW 17:51:29 30° NW 17:54:58 11° NNE
MOS 1-B 4.3 17:47:40 10° SSE 17:53:24 70° ENE 17:59:10 10° NNW
NOAA 6 4.4 17:48:54 10° S 17:54:02 70° WSW 17:59:11 10° NNW
Cosmos 1271 Rocket 4.3 17:52:03 10° SW 17:55:42 36° WNW 17:59:24 10° N
Cosmos 2084 3.6 17:52:21 10° NW 17:56:31 51° NE 17:59:42 17° ESE
Cosmos 1408 Rocket 4.0 17:52:14 10° NNW 17:56:32 66° W 18:00:52 10° S
Cosmos 1464 Rocket 4.3 17:50:49 10° SSW 17:57:10 75° W 18:03:35 10° N
Cosmos 2322 Rocket 4.1 17:54:59 10° N 17:57:14 12° NNE 17:57:36 12° NNE
Cosmos 2369 4.2 17:52:31 10° NNW 17:57:52 38° NE 18:02:24 14° ESE
CZ-4 R/B 3.4 18:00:22 13° NNE 18:00:22 13° NNE 18:01:08 10° NNE
Cosmos 1743 Rocket 3.4 17:56:41 10° N 18:01:02 77° E 18:05:20 10° SSE
deb Kosmos-1763 4.5 17:57:59 10° SW 18:01:21 55° WNW 18:04:11 14° NNE
Cosmos 1782 3.6 17:58:45 10° SSE 18:02:14 29° E 18:02:36 29° E
GEOS 3 Rocket 3.6 17:57:27 10° ESE 18:02:36 60° NE 18:07:43 10° NW
Cosmos 1697 Rocket 2.7 18:00:42 10° NNW 18:06:16 59° ENE 18:11:48 10° SE
Cosmos 1937 Rocket 3.7 18:01:30 10° NNW 18:06:41 49° ENE 18:11:50 10° SE
USA 305 3.4 18:03:20 10° W 18:07:28 51° NNW 18:09:22 28° NE
Cosmos 1763 Rocket 3.5 18:03:02 10° S 18:07:57 55° ESE 18:11:17 20° NE
Cosmos 1980 Rocket 2.7 18:02:52 10° NNW 18:08:06 36° NE 18:10:40 24° E
NOSS 2-1 (E) 4.3 18:06:36 10° WSW 18:09:32 31° NW 18:11:21 19° NNE
Cosmos 841 Rocket 4.4 18:05:32 10° SSE 18:09:48 27° E 18:10:09 27° E
Nadezhda 4 Rocket 4.4 18:05:32 10° NNW 18:11:47 68° W 18:18:03 10° S
SL-16 R/B 3.8 18:08:18 10° N 18:11:40 17° NNE 18:11:40 17° NNE
Cosmos 1340 Rocket 3.2 18:08:01 10° NNW 18:12:04 67° W 18:16:06 10° S
Cosmos 1656 3.9 18:06:39 10° NNW 18:12:10 71° WSW 18:17:43 10° SSE
Meteor 2-14 Rocket 4.4 18:07:16 10° N 18:13:21 61° ENE 18:19:20 10° SSE
USA 267 3.6 18:08:54 20° NE 18:13:26 56° NNW 18:19:47 10° W
Cosmos 2082 Rocket 3.2 18:14:07 10° SSE 18:18:33 26° ESE 18:18:33 26° ESE
USA 276 2.1 18:16:22 10° WNW 18:19:30 74° SSW 18:19:58 58° SE
SKYMED 2 3.6 18:17:49 23° NNE 18:20:22 58° E 18:24:38 10° S
Lacrosse 5 rocket 2.6 18:17:16 10° NW 18:20:29 24° N 18:20:53 24° NNE
Cosmos 1602 3.5 18:18:08 10° N 18:22:00 80° E 18:25:51 10° SSE
Cosmos 990 Rocket 4.2 18:16:51 10° NNW 18:22:04 74° WSW 18:27:13 10° SSE
Cosmos 1092 Rocket 4.0 18:15:50 10° N 18:22:14 89° ENE 18:28:35 10° S
Cosmos 1809 Rocket 4.3 18:16:46 10° N 18:22:55 82° E 18:29:00 10° SSE
Cosmos 2278 4.3 18:18:40 10° NNW 18:23:55 35° NE 18:24:47 34° ENE
COSMOS 2406 3.5 18:18:33 10° S 18:24:00 46° ESE 18:26:02 33° ENE
Cosmos 1933 3.2 18:20:39 10° S 18:24:42 79° E 18:27:10 23° NNE
SJ 16-02 4.2 18:24:08 10° NW 18:27:16 19° W 18:30:23 10° SW
USA 229 DEB 3.9 18:20:02 10° NW 18:27:22 90° NE 18:35:10 10° SE
USA 229 3.9 18:20:07 10° NW 18:27:27 89° NE 18:35:15 10° SE
Meteor 2-21 Rocket 4.4 18:23:32 10° N 18:29:38 60° ENE 18:35:37 10° SSE
Cosmos 1500 Rocket 4.5 18:27:02 10° NNW 18:31:22 50° W 18:35:38 10° SSW
Feng Yun 1-1 Rocket 4.4 18:25:38 10° SSE 18:31:26 60° ENE 18:37:13 10° N
Cosmos 372 Rocket 4.1 18:28:31 10° NNW 18:33:38 53° ENE 18:35:14 38° ESE
Cosmos 1428 Rocket 4.4 18:28:33 10° N 18:34:41 85° W 18:40:50 10° S
ATLAS 2AS CENTAUR R/B 4.3 18:29:18 10° WNW 18:35:45 28° NNW 18:39:54 17° NNE
Cosmos 858 Rocket 4.4 18:31:00 10° NNW 18:36:20 77° ENE 18:41:36 10° SSE
Cosmos 2142 Rocket 4.5 18:31:49 10° SSE 18:37:46 55° E 18:43:47 10° NNE
Meteor 1-26 Rocket 4.2 18:33:30 10° S 18:39:24 73° E 18:45:26 10° NNE
USA 306 3.5 18:35:23 10° W 18:39:27 43° N 18:40:00 40° NNE
Cosmos 1805 Rocket 3.9 18:37:59 10° NNW 18:42:17 64° W 18:46:33 10° S
NOSS 3-1 (A) 4.4 18:43:18 10° NW 18:50:44 69° SW 18:59:25 10° SSE
Cosmos 1833 Rocket 2.6 18:45:46 10° SSW 18:51:23 89° E 18:53:36 39° NNE
ERBS 4.0 18:49:48 10° W 18:52:03 28° NW 18:52:03 28° NW
Cosmos 2360 4.4 18:47:18 10° NNW 18:53:03 73° WSW 18:58:44 10° SSE
Sich 1 3.4 18:49:04 10° NNW 18:53:18 62° W 18:57:32 10° S
CZ-4B R/B 3.9 18:49:46 10° S 18:55:05 53° W 19:00:22 10° NNW
Cosmos 2279 Rocket 3.8 18:49:41 10° S 18:55:51 70° E 19:01:21 14° NNE
USA 307 3.7 18:51:56 10° W 18:55:53 41° NNW 18:55:53 41° NNW
Meteor 1-14 Rocket 4.1 18:51:11 10° N 18:56:59 81° ENE 19:02:52 10° SSE
ARGOS 3.6 18:53:38 10° S 18:58:59 61° WSW 19:04:22 10° NNW
Cosmos 2266 Rocket 4.4 18:53:12 10° N 18:58:09 43° NE 18:58:09 43° NE
H-2A R/B 3.5 18:55:08 10° SSW 18:59:57 37° W 19:04:41 10° NNW
Cosmos 1898 Rocket 4.4 18:55:51 10° NNW 19:00:54 48° WSW 19:05:53 10° S
NOSS 2-2 (D) 4.2 18:56:11 10° NW 19:01:14 80° NE 19:02:49 53° SE
NOSS 2-2 (E) 4.3 18:57:29 10° NW 19:02:43 87° SW 19:05:40 36° SE
Landsat 5 3.6 19:03:51 70° WNW 19:03:53 70° WNW 19:07:58 10° SSW
ATLAS CENTAUR R/B 3.7 19:01:45 10° WNW 19:04:34 16° NNW 19:05:33 16° N
SL-24 R/B - RUBIN 2 4.1 19:00:31 10° NW 19:04:05 51° NNW 19:04:05 51° NNW
Cosmos 1634 Rocket 4.3 18:59:52 10° SSW 19:06:09 68° WNW 19:12:31 10° N
COSMO-SKYMED 1 3.5 19:06:26 27° NNW 19:08:24 47° WNW 19:12:34 10° SW
COSMOS 2455 2.8 19:03:22 10° SSW 19:09:04 62° SE 19:09:04 62° SE
Cosmos 1655 Rocket 4.1 19:04:14 10° N 19:09:57 58° NE 19:09:57 58° NE
SL-08 RB Rocket 4.3 19:09:04 10° S 19:13:39 57° W 19:18:14 10° NNW
Cosmos 540 Rocket 3.6 19:11:21 10° SSW 19:16:26 70° WNW 19:16:55 65° NNW
ATLAS CENTAUR R/B 2.5 19:08:50 10° WSW 19:16:50 74° NW 19:16:50 74° NW
Okean O Rocket 3.2 19:13:44 10° SSW 19:17:47 34° W 19:21:52 10° NNW
USA 308 4.3 19:14:22 10° WNW 19:17:13 32° NW 19:17:13 32° NW
CZ-2C R/B 3.4 19:14:22 13° N 19:18:49 47° WNW 19:23:44 10° SW
ISS -1.1 19:16:44 10° WNW 19:17:54 20° WNW 19:17:54 20° WNW
YAOGAN 1 4.3 19:27:32 26° NNW 19:27:32 26° NNW 19:29:33 10° NNW
Cosmos 2360 Rocket 4.2 19:21:43 10° N 19:23:05 15° N 19:23:05 15° N
CZ-4 R/B 4.1 19:36:21 13° NNW 19:36:21 13° NNW 19:36:46 10° NNW
Cosmos 2180 Rocket 4.5 19:26:52 10° S 19:33:15 83° W 19:34:28 61° N
CZ-4C R/B 2.8 19:27:00 10° NW 19:34:08 84° NE 19:35:01 73° ESE
Cosmos 2322 Rocket 4.0 19:37:33 10° NNW 19:39:25 20° N 19:39:25 20° N
Cosmos 1980 Rocket 3.1 19:46:51 10° NW 19:52:14 45° WSW 19:52:31 45° WSW
USA 267 4.0 19:56:15 42° N 19:56:15 42° N 20:01:53 10° WNW
SL-16 R/B 4.0 19:51:30 10° NNW 19:53:32 23° NNW 19:53:32 23° NNW
Lacrosse 5 rocket 4.4 19:56:23 10° NW 19:56:28 10° NW 19:56:28 10° NW
ATLAS 5 CENTAUR R/B 4.3 19:57:15 10° NW 20:00:03 23° WNW 20:00:03 23° WNW
Cosmos 2082 Rocket 3.4 19:56:49 10° SW 20:00:28 38° WSW 20:00:28 38° WSW
ATLAS 2AS CENTAUR R/B 4.4 20:22:54 10° NW 20:27:20 24° N 20:27:20 24° N
